Terug naar catalogus

DELTA 1 DEB

ActiefSSO
NORAD 8980·DEBRIS·🇺🇸 United States

Gelanceerd Jan 22, 1975 vanaf Vandenberg Space Force Base

Loading…

Volgende Passages (komende 24 uur)

TLE

VersSource: Space-Track

Epoch: Sep 14, 2026, 15:07 UTC

1 08980U 75004BN  26257.63047187  .00000673  00000-0  12339-3 0  9996
2 08980  97.8960 143.2906 0039907  86.9628 273.6143 14.68374360660334

Volg DELTA 1 DEB in realtime met AllMySat

Download on the App Store